Regional Weather Roundup
Issued by NWS

Home | Current Version | Previous Version | Text Only | Print | Product List | Glossary Off
Versions: 1 2 3 4 5 6 7 8 9 10 11 12 13 14 15 16 17 18 19 20 21 22 23 24 25 26 27 28 29 30 31 32 33 34 35 36 37 38 39 40 41 42 43 44 45 46 47 48 49 50

000
ASUS45 KSLC 031410
RWRUT

UTAH REGIONAL WEATHER ROUNDUP
NATIONAL WEATHER SERVICE SALT LAKE CITY UT
800 AM MDT FRI JUL 03 2015

UTZ001>011-023>025-031500-

NORTHERN UTAH

CITY           SKY/WX    TMP DP  RH WIND       PRES   REMARKS
BRIGHAM CITY   SUNNY     68  51  55 CALM      30.04R
HILL AFB       SUNNY     71  46  40 E16       30.07R
LOGAN          SUNNY     65  49  56 N3        30.06S
OGDEN          MOSUNNY   75  46  35 S10       30.04R
PROVO AIRPORT  MOSUNNY   70  45  40 E5        30.08R
SALT LAKE CITY MOSUNNY   79  50  36 S10       30.02R
VERNAL         SUNNY     74  47  38 CALM      30.13R
WENDOVER       MOSUNNY   81  46  30 NE8       30.03R
HEBER CITY     SUNNY     61  45  55 CALM      30.18S
WEST JORDAN    SUNNY     75  46  35 CALM      30.06R

$$

UTZ012>022-026-027-031500-

SOUTHERN/CENTRAL UTAH

CITY           SKY/WX    TMP DP  RH WIND       PRES   REMARKS
BLANDING       PTSUNNY   67  57  69 CALM      30.27S
BRYCE CANYON   PTSUNNY   59  51  75 W5        30.31R
CEDAR CITY     PTSUNNY   67  51  56 CALM      30.15R
DELTA          SUNNY     72  43  35 CALM      30.08S
HANKSVILLE     PTSUNNY   77  45  31 CALM      30.04S
MILFORD        CLOUDY    72  54  53 S8        30.09S
MOAB/CYNLANDS  SUNNY     80  53  39 E8        30.03R
PRICE          SUNNY     80  39  23 W3        30.13R
ST GEORGE      SUNNY     81  54  39 SE5       29.97R
KANAB          PTSUNNY   70  57  64 NE3       30.16S

$$

REGIONAL REPORTS     COLORADO/ARIZONA

CITY           SKY/WX    TMP DP  RH WIND       PRES   REMARKS
CRAIG, CO      SUNNY     64  48  56 CALM      30.21S
GRAND JUNCTION MOSUNNY   76  51  41 SE13      30.08R
RIFLE          SUNNY     70  49  47 CALM      30.16R
MONTROSE       PTSUNNY   69  53  56 E14G22    30.19S
CORTEZ         SUNNY     67  54  63 E6        30.21R
PAGE, AZ       PTSUNNY   80  50  34 CALM      30.03R
GRAND CANYON     N/A    N/A N/A N/A MISG      30.24S
KINGMAN        PTSUNNY   82  52  35 CALM      30.01R
FLAGSTAFF      MOSUNNY   63  52  67 SW7       30.29R

$$

REGIONAL REPORTS    NEVADA/IDAHO/WYOMING

CITY           SKY/WX    TMP DP  RH WIND       PRES   REMARKS
LAS VEGAS, NV  PTSUNNY   90  52  27 S14       29.84R
ELY            CLOUDY    64  54  69 S10       30.22R
ELKO           CLOUDY    65  49  56 CALM      30.13S
POCATELLO, ID  SUNNY     68  48  48 W3        30.05S
BURLEY         SUNNY     70  53  54 S6        30.02R
EVANSTON, WY   SUNNY     64  47  53 E6        30.27S
ROCK SPRINGS   SUNNY     62  51  67 E7        30.25F
KEMMERER       SUNNY     63  46  55 N9        30.30S

$$



USA.gov is the U.S. government's official web portal to all federal, state and local government web resources and services.